Regional Weather Roundup
Issued by NWS

Home | Current Version | Previous Version | Text Only | Print | Product List | Glossary Off
Versions: 1 2 3 4 5 6 7 8 9 10 11 12 13 14 15 16 17 18 19 20 21 22 23 24 25 26 27 28 29 30 31 32 33 34 35 36 37 38 39 40 41 42 43 44 45 46 47 48 49 50

000
ASUS45 KCYS 202210
RWRWY

WYOMING REGIONAL WEATHER ROUNDUP
NATIONAL WEATHER SERVICE CHEYENNE WY
400 PM MDT SAT SEP 20 2014

NOTE:  "FAIR" INDICATES FEW OR NO CLOUDS BELOW 12,000 FEET
WITH NO SIGNIFICANT WEATHER AND/OR OBSTRUCTIONS TO VISIBILITY.

WYZ001-202300-
YELLOWSTONE NATIONAL PARK

CITY           SKY/WX    TMP DP  RH WIND       PRES   REMARKS
LK YELLOWSTONE   N/A     65  32  29 CALM      30.41F
W YELLOWSTONE  NOT AVBL

$$
WYZ002>013-054>058-071-098>099-202300-
NORTHERN WYOMING

CITY           SKY/WX    TMP DP  RH WIND       PRES   REMARKS
JACKSON        SUNNY     73  37  27 SE7       30.29F
CODY             N/A    N/A N/A N/A MISG        N/A
GREYBULL       SUNNY     78  37  22 NW6       30.20F
WORLAND        SUNNY     77  37  23 N8        30.22F
SHERIDAN       SUNNY     73  40  30 NW7       30.25F
BUFFALO        SUNNY     69  40  34 N12G22    30.30S
GILLETTE       SUNNY     73  38  27 N10       30.24F
HULETT         FAIR      70  36  28 MISG      30.25
NEWCASTLE      FAIR      73  32  21 N15G26    30.22

$$
WYZ014>020-022>026-101>103-202300-
CENTRAL WYOMING

CITY           SKY/WX    TMP DP  RH WIND       PRES   REMARKS
BIG PINEY      SUNNY     76  28  17 S7        30.32F
PINEDALE       CLEAR     75  27  16 E5        30.32F
DUBOIS         FAIR      70  36  28 SE14G22   30.33S
LANDER         SUNNY     77  38  24 N6        30.24F
RIVERTON       SUNNY     76  39  26 NE8       30.26F
CASPER         SUNNY     78  38  23 N10       30.26F
DOUGLAS        SUNNY     77  40  26 N14       30.26S

$$
WYZ021-027>030-104>119-202300-
SOUTHERN WYOMING

CITY           SKY/WX    TMP DP  RH WIND       PRES   REMARKS
EVANSTON       SUNNY     77  21  12 N8        30.30F
KEMMERER       CLEAR     73  30  20 CALM      30.33F
FORT BRIDGER   FAIR      76  28  17 CALM      30.34F
ROCK SPRINGS   SUNNY     76  31  19 VRB7      30.30
DIXON          FAIR      79  33  19 CALM      30.30F
RAWLINS        SUNNY     77  34  21 N8        30.31F
SARATOGA       FAIR      73  32  21 CALM      30.33S
LARAMIE        SUNNY     75  33  21 N8        30.33S
CHEYENNE       SUNNY     78  42  27 N9G18     30.27S
TORRINGTON     SUNNY     81  45  28 N15G22    30.17S
PINE BLUFFS    FAIR      79  41  25 N5        30.23S

$$


USA.gov is the U.S. government's official web portal to all federal, state and local government web resources and services.